[Iaude] MPEC B88: 2024 BE2 [a=2.49,e=0.59,i=3.2,H=23.8]
    mpec at marsden.cfa.harvard.edu 
    mpec at marsden.cfa.harvard.edu
       
    Sun Jan 21 20:22:30 EST 2024
    
    
  
M.P.E.C. 2024-B88                              Issued 2024 January 22, 01:20 UT
     The Minor Planet Electronic Circulars contain information on unusual
         minor planets, routine data on comets and natural satellites,
         and occasional editorial announcements.  They are published
    on behalf of Division F of the International Astronomical Union by the
          Minor Planet Center, Smithsonian Astrophysical Observatory,
                          Cambridge, MA 02138, U.S.A.
			  
             Prepared using the Tamkin Foundation Computer Network
                              MPC at CFA.HARVARD.EDU
            URL https://www.minorplanetcenter.net/    ISSN 1523-6714
                                    2024 BE2                                    
Observations:
     K24B02E*1C2024 01 19.27686308 51 33.487+26 34 51.78         21.19GVEB088G96
     K24B02E 1C2024 01 19.28202308 51 34.427+26 34 57.00         21.24GVEB088G96
     K24B02E 1C2024 01 19.28717508 51 35.345+26 35 03.05         20.50GVEB088G96
     K24B02E 1C2024 01 19.29232608 51 36.364+26 35 08.70         20.59GVEB088G96
     K24B02E KC2024 01 19.36887608 51 50.389+26 36 35.32               VEB088I52
     K24B02E KC2024 01 19.37174008 51 51.016+26 36 39.67         21.81GVEB088I52
     K24B02E KC2024 01 19.37459708 51 51.588+26 36 42.62         21.09GVEB088I52
     K24B02E KC2024 01 19.37745308 51 52.060+26 36 45.29         20.83GVEB088I52
     K24B02E KB2024 01 20.39664 08 55 24.535+26 56 09.60         20.6 GVEB088734
     K24B02E  C2024 01 20.39868908 55 27.972+26 56 27.57         20.79GVEB088F52
     K24B02E KB2024 01 20.39953 08 55 25.126+26 56 12.62         20.8 GVEB088734
     K24B02E  C2024 01 20.42326108 55 32.808+26 56 57.50         20.88GVEB088F52
     K24B02E  C2024 01 20.43555108 55 35.225+26 57 12.48         20.74GVEB088F52
     K24B02E 1C2024 01 20.44940608 55 35.627+26 57 16.31         20.88GVEB088G96
     K24B02E 1C2024 01 20.45143208 55 36.019+26 57 17.78         20.99GVEB088G96
     K24B02E 1C2024 01 20.45343308 55 36.476+26 57 20.27         21.21GVEB088G96
     K24B02E 1C2024 01 20.45493108 55 36.764+26 57 22.32         20.82GVEB088G96
     K24B02E KC2024 01 21.90914909 01 09.44 +27 26 16.5          20.8 GVEB088L01
     K24B02E KC2024 01 21.91167509 01 10.08 +27 26 20.2          20.5 GVEB088L01
     K24B02E KC2024 01 21.91588409 01 11.00 +27 26 25.4          20.7 GVEB088L01
Observer details:
734 Farpoint Observatory, Eskridge.  Observers D. Cromer, G. Hug, D. Goodin,
    R. Valentine.  Measurer G. Hug.  0.69-m f/3.54 reflector + CMO.
F52 Pan-STARRS 2, Haleakala.  Observers J. Herman, T. Lowe, P. Minguez, A.
    Schultz, I. Smith.  Measurers K. Chambers, T. de Boer, J. Fairlamb, H.
    Gao, M. Huber, C.-C. Lin, E. Magnier, Y. Ramanjooloo, R. Wainscoat, R.
    Weryk.  1.8-m Ritchey-Chretien + CCD.
G96 Mt. Lemmon Survey.  Observer A. R. Gibbs.  Measurers T. Beuden, V. F.
    Carvajal, D. Fay, J. B. Fazekas, D. C. Fuls, A. R. Gibbs, A. D. Grauer, H.
    Groeller, J. K. Hogan, R. A. Kowalski, S. M. Larson, G. J. Leonard, D.
    Rankin, R. L. Seaman, F. C. Shelly, K. W. Wierzchos.  1.5-m reflector +
    10K CCD.
I52 Steward Observatory, Mt. Lemmon Station.  Observer R. A. Kowalski.
    Measurers E. C. Beshore, D. Fay, J. B. Fazekas, D. C. Fuls, A. R. Gibbs,
    A. D. Grauer, H. Groeller, J. K. Hogan, R. A. Kowalski, S. M. Larson, G.
    J. Leonard, D. Rankin, R. L. Seaman, F. C. Shelly, K. W. Wierzchos.  1.0-m
    prime focus + CCD.
L01 Visnjan Observatory, Tican.  Observer K. Korlevic.  1.0-m f/2.9 reflector
    + CCD.
Orbital elements:
2024 BE2                                                 Earth MOID = 0.0635 AU
Epoch 2023 Sept. 13.0 TT = JDT 2460200.5                Veres                   
M 316.76401              (2000.0)            P               Q                  
n   0.25061442     Peri.   74.62463     -0.97695657     -0.20621879             
a   2.4915256      Node    93.45094     +0.16850317     -0.90347712             
e   0.5873393      Incl.    3.16103     +0.13100585     -0.37576976             
P   3.93           H   23.81          G   0.15           U   8                  
Residuals in seconds of arc
240119 G96  0.1+  0.9+    240119 I52  0.3-  0.5-    240120 G96  0.3-  0.4-
240119 G96  0.2-  0.1+    240120 734  0.0   0.4-    240120 G96  0.4+  0.2-
240119 G96  0.7-  0.1+    240120 F52  0.0   0.0     240120 G96  0.2+  0.2+
240119 G96  0.2+  0.3-    240120 734  0.1+  0.6-    240121 L01  0.6-  0.2-
240119 I52 (1.4-  0.9-)   240120 F52  0.0   0.0     240121 L01  0.4+  0.3+
240119 I52  0.1-  0.2+    240120 F52  0.0   0.2+    240121 L01  0.1+  0.1+
240119 I52  0.5+  0.0     240120 G96  0.1-  0.3+
Ephemeris:
2024 BE2                 a,e,i = 2.49, 0.59, 3                   q = 1.0282
Date    TT    R. A. (2000) Decl.     Delta      r    Elong.  Phase     V
2023 12 23    07 57 44.8 +21 35 42   0.4045  1.3573   153.3    19.0    23.5
...
2024 01 07    08 20 58.9 +23 32 40   0.2762  1.2504   163.3    13.0    22.3
...
2024 01 15    08 38 44.9 +25 20 42   0.2196  1.1984   166.7    10.9    21.6
...
2024 01 21    08 57 38.5 +27 08 14   0.1824  1.1624   166.9    11.1    21.1
2024 01 22    09 01 29.4 +27 28 25   0.1767  1.1567   166.6    11.3    21.1
2024 01 23    09 05 35.3 +27 49 13   0.1711  1.1511   166.3    11.7    21.0
...
2024 01 29    09 36 42.8 +30 03 59   0.1401  1.1195   162.9    15.0    20.6
...
2024 02 06    10 43 50.1 +32 45 44   0.1075  1.0835   153.8    23.7    20.3
...
2024 02 21    14 07 24.4 +24 57 44   0.08678 1.0388   123.2    52.8    20.5
M. P. C. Staff               (C) Copyright 2024 MPC           M.P.E.C. 2024-B88
    
    
More information about the Iaude
mailing list